CW4517 Weather Reports


Display with metric or nautical units.
time (UTC)temp
F
wind
direction
speed
MPH
gust
MPH
rain 1hr
in
rain 24hr
in
rain mn
in
humidity
%
barometer
mb
20260902224347 92 171 4.0 7.0 0.00 0.00 0.00 69 1009.8
20260902224110 92 209 4.0 8.0 0.00 0.00 0.00 70 1009.8
20260902223116 92 132 4.0 10.0 0.00 0.00 0.00 69 1009.8
20260902222610 92 200 4.0 10.0 0.00 0.00 0.00 68 1009.8
20260902222104 92 227 4.0 8.0 0.00 0.00 0.00 68 1009.8
20260902221605 92 232 4.0 8.0 0.00 0.00 0.00 68 1009.8
20260902221324 92 218 3.0 9.0 0.00 0.00 0.00 67 1009.8
20260902220604 92 224 3.0 9.0 0.00 0.00 0.00 68 1009.8
20260902220104 92 204 4.0 9.0 0.00 0.00 0.00 68 1009.8
20260902215604 92 238 4.0 11.0 0.00 0.00 0.00 66 1010.0
20260902215326 92 200 5.0 11.0 0.00 0.00 0.00 66 1010.0
20260902215044 93 233 5.0 11.0 0.00 0.00 0.00 65 1010.0
20260902214104 93 201 4.0 11.0 0.00 0.00 0.00 64 1010.1
20260902213603 93 232 4.0 12.0 0.00 0.00 0.00 65 1010.1
20260902213548 94 146 6.0 14.0 0.00 0.00 0.00 64 1010.1
20260902212603 93 236 7.0 14.0 0.00 0.00 0.00 63 1010.1
20260902212101 94 239 6.0 11.0 0.00 0.00 0.00 63 1010.1
20260902211602 94 221 5.0 10.0 0.00 0.00 0.00 64 1010.1
20260902211102 94 235 5.0 10.0 0.00 0.00 0.00 63 1010.1
20260902210602 93 226 6.0 11.0 0.00 0.00 0.00 64 1010.1
20260902210324 93 244 6.0 13.0 0.00 0.00 0.00 63 1010.1
20260902205558 94 211 5.0 13.0 0.00 0.00 0.00 63 1010.2
20260902205046 94 257 5.0 11.0 0.00 0.00 0.00 64 1010.2
20260902204546 94 197 4.0 11.0 0.00 0.00 0.00 63 1010.2
20260902204046 94 221 4.0 11.0 0.00 0.00 0.00 62 1010.2
20260902203546 94 227 5.0 14.0 0.00 0.00 0.00 60 1010.2
20260902203310 94 202 6.0 14.0 0.00 0.00 0.00 61 1010.2
20260902202545 94 209 5.0 14.0 0.00 0.00 0.00 62 1010.2
20260902202045 94 254 4.0 10.0 0.00 0.00 0.00 61 1010.2
20260902201812 94 157 4.0 9.0 0.00 0.00 0.00 64 1010.2
20260902201351 94 225 5.0 10.0 0.00 0.00 0.00 64 1010.4
20260902200035 94 225 5.0 13.0 0.00 0.00 0.00 61 1010.4
20260902195530 94 246 4.0 10.0 0.00 0.00 0.00 60 1010.5
20260902195023 94 161 4.0 11.0 0.00 0.00 0.00 63 1010.5
20260902194518 93 213 5.0 11.0 0.00 0.00 0.00 63 1010.5
20260902194011 93 218 4.0 10.0 0.00 0.00 0.00 63 1010.7
20260902193506 93 216 4.0 10.0 0.00 0.00 0.00 65 1010.7
20260902192955 94 212 4.0 10.0 0.00 0.00 0.00 62 1010.7
20260902192452 93 210 4.0 10.0 0.00 0.00 0.00 64 1010.8
20260902191946 93 235 5.0 10.0 0.00 0.00 0.00 62 1010.8
20260902191440 93 217 5.0 10.0 0.00 0.00 0.00 60 1011.0
20260902190934 93 273 5.0 10.0 0.00 0.00 0.00 60 1011.0
20260902190423 92 258 5.0 11.0 0.00 0.00 0.00 60 1011.0
20260902190146 92 226 5.0 11.0 0.00 0.00 0.00 61 1011.0
20260902185417 92 236 4.0 11.0 0.00 0.00 0.00 63 1011.0
20260902184909 92 237 3.0 8.0 0.00 0.00 0.00 64 1011.0
20260902184404 92 196 4.0 10.0 0.00 0.00 0.00 63 1011.1
20260902183858 91 199 4.0 10.0 0.00 0.00 0.00 63 1011.1
20260902183352 91 325 5.0 10.0 0.00 0.00 0.00 65 1011.1
20260902182841 91 202 5.0 10.0 0.00 0.00 0.00 66 1011.2
20260902182825 91 225 5.0 9.0 0.00 0.00 0.00 66 1011.2
20260902182057 91 248 4.0 10.0 0.00 0.00 0.00 66 1011.2
20260902181329 91 151 4.0 10.0 0.00 0.00 0.00 66 1011.2
20260902180822 91 197 4.0 8.0 0.00 0.00 0.00 67 1011.2
20260902180311 91 217 5.0 9.0 0.00 0.00 0.00 67 1011.2
20260902175810 90 208 4.0 9.0 0.00 0.00 0.00 66 1011.3
20260902175307 90 200 4.0 9.0 0.00 0.00 0.00 67 1011.3
20260902174757 90 221 4.0 9.0 0.00 0.00 0.00 66 1011.3
20260902174253 90 227 5.0 9.0 0.00 0.00 0.00 65 1011.4
20260902173743 90 229 5.0 9.0 0.00 0.00 0.00 66 1011.4
20260902173241 90 229 4.0 9.0 0.00 0.00 0.00 66 1011.4
20260902172735 90 241 5.0 11.0 0.00 0.00 0.00 66 1011.4
20260902172227 89 229 5.0 11.0 0.00 0.00 0.00 67 1011.4
20260902171726 89 194 4.0 9.0 0.00 0.00 0.00 66 1011.4
20260902171224 89 243 5.0 10.0 0.00 0.00 0.00 66 1011.7
20260902171202 89 250 5.0 10.0 0.00 0.00 0.00 67 1011.7
20260902170442 89 222 4.0 10.0 0.00 0.00 0.00 67 1011.7
20260902165721 89 225 3.0 8.0 0.00 0.00 0.00 68 1011.8
20260902165221 88 230 4.0 9.0 0.00 0.00 0.00 69 1011.8
20260902164722 88 249 4.0 9.0 0.00 0.00 0.00 69 1011.8
20260902164218 88 248 4.0 9.0 0.00 0.00 0.00 69 1011.9
20260902163719 87 248 4.0 10.0 0.00 0.00 0.00 69 1011.9
20260902162719 87 227 4.0 10.0 0.00 0.00 0.00 70 1011.9
20260902162219 87 247 5.0 11.0 0.00 0.00 0.00 70 1011.9
20260902161720 87 242 5.0 11.0 0.00 0.00 0.00 70 1011.9
20260902161214 86 220 5.0 14.0 0.00 0.00 0.00 71 1011.9
20260902160700 86 257 5.0 14.0 0.00 0.00 0.00 71 1011.9
20260902160409 85 329 4.0 9.0 0.00 0.00 0.00 73 1011.9
20260902155638 85 202 4.0 10.0 0.00 0.00 0.00 72 1011.6
20260902155353 85 148 5.0 10.0 0.00 0.00 0.00 73 1011.6
20260902154613 85 236 5.0 8.0 0.00 0.00 0.00 72 1011.6
20260902154544 85 230 5.0 10.0 0.00 0.00 0.00 73 1011.7
20260902153556 84 219 5.0 11.0 0.00 0.00 0.00 73 1011.7
20260902153045 84 235 5.0 11.0 0.00 0.00 0.00 72 1011.7
20260902152801 84 209 5.0 10.0 0.00 0.00 0.00 75 1011.5
20260902152038 83 205 4.0 9.0 0.00 0.00 0.00 74 1011.5
20260902151532 83 235 3.0 7.0 0.00 0.00 0.00 75 1011.5
20260902151248 83 214 4.0 9.0 0.00 0.00 0.00 76 1011.4
20260902150736 82 219 5.0 10.0 0.00 0.00 0.00 76 1011.4
20260902150014 82 221 4.0 10.0 0.00 0.00 0.00 76 1011.4
20260902145510 82 205 4.0 9.0 0.00 0.00 0.00 76 1011.6
20260902145002 82 221 4.0 9.0 0.00 0.00 0.00 76 1011.6
20260902144457 82 229 5.0 12.0 0.00 0.00 0.00 76 1011.6
20260902143950 82 238 6.0 12.0 0.00 0.00 0.00 75 1011.6
20260902143440 82 217 5.0 10.0 0.00 0.00 0.00 76 1011.6
20260902142934 81 253 4.0 11.0 0.00 0.00 0.00 78 1011.7
20260902142432 81 140 5.0 11.0 0.00 0.00 0.00 78 1011.7
20260902141927 81 201 5.0 10.0 0.00 0.00 0.00 77 1011.7
20260902141643 80 211 4.0 8.0 0.00 0.00 0.00 78 1011.9
20260902140916 80 202 4.0 10.0 0.00 0.00 0.00 78 1011.9
20260902140403 80 220 5.0 11.0 0.00 0.00 0.00 78 1011.9
20260902135903 79 205 4.0 11.0 0.00 0.00 0.00 79 1011.9
20260902135357 79 202 3.0 10.0 0.00 0.00 0.00 80 1011.9
20260902135112 78 234 3.0 7.0 0.00 0.00 0.00 80 1011.9
20260902134341 78 209 3.0 7.0 0.00 0.00 0.00 81 1012.0
20260902133839 77 225 3.0 7.0 0.00 0.00 0.00 82 1012.0
20260902133815 77 225 3.0 8.0 0.00 0.00 0.00 82 1012.0
20260902132828 76 215 2.0 8.0 0.00 0.00 0.00 83 1012.0
20260902132320 76 175 2.0 5.0 0.00 0.00 0.00 83 1012.0
20260902131814 76 225 2.0 4.0 0.00 0.00 0.00 83 1012.0
20260902131308 76 220 1.0 4.0 0.00 0.00 0.00 83 1012.1
20260902130802 76 219 1.0 4.0 0.00 0.00 0.00 83 1012.1
20260902130252 76 229 2.0 4.0 0.00 0.00 0.00 83 1012.1
20260902125750 76 213 2.0 5.0 0.00 0.00 0.00 83 1011.9
20260902125245 76 215 1.0 5.0 0.00 0.00 0.00 83 1011.9
20260902124738 76 179 2.0 4.0 0.00 0.00 0.00 83 1011.9
20260902124232 75 220 2.0 5.0 0.00 0.00 0.00 83 1012.0
20260902123728 75 212 1.0 6.0 0.00 0.00 0.00 84 1012.0
20260902123228 75 234 1.0 6.0 0.00 0.00 0.00 84 1012.0
20260902122728 75 178 1.0 4.0 0.00 0.00 0.00 84 1012.0
20260902122225 74 200 2.0 6.0 0.00 0.00 0.00 84 1012.0
20260902121726 74 234 2.0 6.0 0.00 0.00 0.00 84 1012.0
20260902121223 74 198 2.0 4.0 0.00 0.00 0.00 84 1011.9
20260902120723 74 209 1.0 4.0 0.00 0.00 0.00 84 1011.9
20260902120228 74 163 1.0 4.0 0.00 0.00 0.00 84 1011.9
20260902115723 74 224 1.0 4.0 0.00 0.00 0.00 84 1011.9
20260902115448 74 175 1.0 2.0 0.00 0.00 0.00 84 1011.9
20260902114723 74 200 1.0 6.0 0.00 0.00 0.00 84 1011.9
20260902114217 74 221 2.0 6.0 0.00 0.00 0.00 84 1011.9
20260902113705 74 229 2.0 6.0 0.00 0.00 0.00 84 1011.9
20260902113155 74 227 3.0 6.0 0.00 0.00 0.00 84 1011.9
20260902112910 74 225 3.0 6.0 0.00 0.00 0.00 84 1011.9
20260902112138 74 234 2.0 5.0 0.00 0.00 0.00 84 1011.9
20260902111638 74 218 2.0 5.0 0.00 0.00 0.00 84 1011.9
20260902111131 74 208 2.0 5.0 0.00 0.00 0.00 84 1011.8
20260902110626 74 234 1.0 5.0 0.00 0.00 0.00 84 1011.8
20260902110120 74 213 1.0 5.0 0.00 0.00 0.00 84 1011.8
20260902105609 74 215 1.0 2.0 0.00 0.00 0.00 84 1011.8
20260902105328 74 198 1.0 5.0 0.00 0.00 0.00 84 1011.8
20260902104602 74 229 1.0 5.0 0.00 0.00 0.00 84 1011.8
20260902104055 75 182 1.0 5.0 0.00 0.00 0.00 84 1011.8
20260902103549 75 211 1.0 5.0 0.00 0.00 0.00 84 1011.8
20260902103038 75 217 1.0 5.0 0.00 0.00 0.00 84 1011.8
20260902102538 75 203 1.0 5.0 0.00 0.00 0.00 84 1011.9
20260902102033 75 182 1.0 4.0 0.00 0.00 0.00 84 1011.9
20260902101525 75 223 1.0 3.0 0.00 0.00 0.00 84 1011.9
20260902101019 75 197 1.0 3.0 0.00 0.00 0.00 84 1011.8
20260902100513 75 190 1.0 3.0 0.00 0.00 0.00 84 1011.8
20260902100007 75 230 0.0 3.0 0.00 0.00 0.00 84 1011.8
20260902095456 75 190 1.0 3.0 0.00 0.00 0.00 84 1011.6
20260902094955 75 227 0.0 3.0 0.00 0.00 0.00 84 1011.6
20260902094450 75 170 0.0 1.0 0.00 0.00 0.00 84 1011.6
20260902093939 75 196 0.0 0.0 0.00 0.00 0.00 84 1011.6
20260902093438 75 190 0.0 0.0 0.00 0.00 0.00 84 1011.6
20260902092928 75 190 0.0 0.0 0.00 0.00 0.00 84 1011.6
20260902092425 75 183 0.0 1.0 0.00 0.00 0.00 84 1011.6
20260902091920 75 175 0.0 1.0 0.00 0.00 0.00 84 1011.6
20260902091413 75 204 0.0 1.0 0.00 0.00 0.00 84 1011.7
20260902090908 75 219 1.0 3.0 0.00 0.00 0.00 84 1011.7
20260902090400 75 219 1.0 3.0 0.00 0.00 0.00 84 1011.7
20260902085855 75 223 2.0 3.0 0.00 0.00 0.00 84 1011.6
20260902085607 75 225 2.0 3.0 0.00 0.00 0.00 84 1011.6
20260902084844 75 225 2.0 3.0 0.00 0.00 0.00 84 1011.6
20260902084338 76 234 2.0 4.0 0.00 0.00 0.00 83 1011.4
20260902083831 76 227 2.0 4.0 0.00 0.00 0.00 83 1011.4
20260902083326 76 223 2.0 3.0 0.00 0.00 0.00 83 1011.4
20260902082814 76 223 2.0 4.0 0.00 0.00 0.00 83 1011.3
20260902082312 76 232 2.0 4.0 0.00 0.00 0.00 83 1011.3
20260902081801 76 228 2.0 5.0 0.00 0.00 0.00 83 1011.3
20260902081249 76 225 2.0 5.0 0.00 0.00 0.00 83 1011.3
20260902081229 76 229 2.0 5.0 0.00 0.00 0.00 83 1011.3
20260902080238 76 207 2.0 5.0 0.00 0.00 0.00 83 1011.3
20260902075739 76 211 2.0 4.0 0.00 0.00 0.00 83 1011.3
20260902075238 76 218 2.0 4.0 0.00 0.00 0.00 83 1011.3
20260902074739 76 138 2.0 5.0 0.00 0.00 0.00 83 1011.3
20260902074239 76 198 2.0 5.0 0.00 0.00 0.00 83 1011.2
20260902073738 76 200 2.0 5.0 0.00 0.00 0.00 83 1011.2
20260902073239 76 181 2.0 5.0 0.00 0.00 0.00 83 1011.2
20260902072740 76 176 1.0 3.0 0.00 0.00 0.00 84 1011.3
20260902072232 76 209 1.0 3.0 0.00 0.00 0.00 84 1011.3
20260902071728 76 204 1.0 3.0 0.00 0.00 0.00 84 1011.3
20260902071217 76 191 1.0 4.0 0.00 0.00 0.00 84 1011.4
20260902070715 76 208 1.0 4.0 0.00 0.00 0.00 83 1011.4
20260902070424 76 215 0.0 2.0 0.00 0.00 0.00 83 1011.4
20260902065702 76 175 0.0 2.0 0.00 0.00 0.00 84 1011.4
20260902065158 76 173 1.0 2.0 0.00 0.00 0.00 84 1011.4
20260902064916 76 153 1.0 3.0 0.00 0.00 0.00 83 1011.4
20260902064144 76 254 1.0 3.0 0.00 0.00 0.00 83 1011.4
20260902063900 77 254 1.0 3.0 0.00 0.00 0.00 83 1011.4
20260902063132 77 178 1.0 3.0 0.00 0.00 0.00 83 1011.4
20260902062626 77 179 1.0 3.0 0.00 0.00 0.00 83 1011.3
20260902062121 77 204 1.0 3.0 0.00 0.00 0.00 82 1011.3
20260902061615 77 232 1.0 4.0 0.00 0.00 0.00 82 1011.3
20260902061104 77 222 2.0 4.0 0.00 0.00 0.00 82 1011.4
20260902060604 77 220 2.0 5.0 0.00 0.00 0.00 82 1011.4
20260902060058 77 178 2.0 5.0 0.00 0.00 0.00 82 1011.4
20260902055813 78 183 2.0 4.0 0.00 0.00 0.00 82 1011.4
20260902055047 78 182 2.0 4.0 0.00 0.00 0.00 82 1011.4
20260902054538 78 192 2.0 4.0 0.00 0.00 0.00 82 1011.4
20260902054255 78 213 1.0 4.0 0.00 0.00 0.00 82 1011.4
20260902053521 78 219 1.0 4.0 0.00 0.00 0.00 81 1011.4
20260902053021 78 169 2.0 4.0 0.00 0.00 0.00 81 1011.4
20260902052600 78 229 2.0 4.0 0.00 0.00 0.00 81 1011.4
20260902051729 78 200 1.0 4.0 0.00 0.00 0.00 82 1011.4
20260902051216 78 208 1.0 4.0 0.00 0.00 0.00 82 1011.4
20260902050450 78 197 1.0 4.0 0.00 0.00 0.00 82 1011.4
20260902045942 78 186 1.0 5.0 0.00 0.00 0.00 82 1011.5
20260902045441 78 223 2.0 5.0 0.00 0.00 0.00 82 1011.5
20260902044935 78 225 1.0 3.0 0.00 0.00 0.00 82 1011.5
20260902044428 78 197 1.0 4.0 0.00 0.00 0.00 82 1011.7
20260902043923 78 255 1.0 4.0 0.00 0.00 0.00 82 1011.7
20260902043417 78 185 1.0 3.0 0.00 0.00 0.00 82 1011.7
20260902042912 78 246 1.0 3.0 0.00 0.00 0.00 82 1011.6
20260902042401 78 181 1.0 2.0 0.00 0.00 0.00 82 1011.6
20260902041858 78 184 1.0 2.0 0.00 0.00 0.00 82 1011.6
20260902041352 78 213 1.0 3.0 0.00 0.00 0.00 82 1011.7
20260902041105 79 207 0.0 3.0 0.00 0.00 0.00 82 1011.7
20260902040341 79 192 0.0 2.0 0.00 0.00 0.00 82 1011.7
20260902035831 79 186 0.0 2.0 0.00 0.00 0.00 82 1011.6
20260902035329 79 223 0.0 2.0 0.00 0.00 0.00 81 1011.6
20260902034822 79 223 1.0 3.0 0.00 0.00 0.00 81 1011.6
20260902034541 79 223 1.0 3.0 0.00 0.00 0.00 81 1011.6
20260902033810 79 223 1.0 3.0 0.00 0.00 0.00 81 1011.6
20260902033305 80 219 2.0 4.0 0.00 0.00 0.00 81 1011.6
20260902032758 80 218 2.0 4.0 0.00 0.00 0.00 81 1011.7
20260902032512 80 225 2.0 4.0 0.00 0.00 0.00 81 1011.7
20260902031746 80 225 2.0 4.0 0.00 0.00 0.00 81 1011.7
20260902031240 80 227 3.0 5.0 0.00 0.00 0.00 81 1011.6
20260902030956 80 234 2.0 5.0 0.00 0.00 0.00 81 1011.6
20260902030229 80 208 2.0 5.0 0.00 0.00 0.00 81 1011.6
20260902025723 80 232 2.0 5.0 0.00 0.00 0.00 81 1011.6
20260902025215 80 234 2.0 5.0 0.00 0.00 0.00 80 1011.6
20260902024713 80 232 2.0 6.0 0.00 0.00 0.00 80 1011.6
20260902024209 80 229 2.0 6.0 0.00 0.00 0.00 80 1011.5
20260902024200 81 225 2.0 4.0 0.00 0.00 0.00 80 1011.5
20260902023209 81 217 2.0 5.0 0.00 0.00 0.00 80 1011.5
20260902022710 81 197 2.0 5.0 0.00 0.00 0.00 80 1011.5
20260902022210 81 224 3.0 5.0 0.00 0.00 0.00 80 1011.5
20260902021710 82 232 3.0 6.0 0.00 0.00 0.00 80 1011.5
20260902021210 82 225 4.0 6.0 0.00 0.00 0.00 79 1011.4
20260902020710 82 221 3.0 6.0 0.00 0.00 0.00 79 1011.4
20260902020205 82 230 3.0 6.0 0.00 0.00 0.00 80 1011.4
20260902015651 82 223 3.0 5.0 0.00 0.00 0.00 80 1011.3
20260902015144 82 219 3.0 5.0 0.00 0.00 0.00 80 1011.3
20260902014637 82 236 2.0 4.0 0.00 0.00 0.00 80 1011.3
20260902014127 82 246 2.0 5.0 0.00 0.00 0.00 80 1011.0
20260902013625 82 209 1.0 5.0 0.00 0.00 0.00 80 1011.0
20260902013119 83 216 1.0 4.0 0.00 0.00 0.00 80 1011.0
20260902012615 83 219 2.0 6.0 0.00 0.00 0.00 80 1010.9
20260902012108 83 221 2.0 6.0 0.00 0.00 0.00 79 1010.9
20260902011603 83 226 1.0 5.0 0.00 0.00 0.00 79 1010.9
20260902011056 84 217 1.0 3.0 0.00 0.00 0.00 79 1010.8
20260902010545 84 231 1.0 3.0 0.00 0.00 0.00 79 1010.8
20260902010043 84 232 1.0 3.0 0.00 0.00 0.00 79 1010.8
20260902005539 85 243 0.0 2.0 0.00 0.00 0.00 78 1010.7
20260902005033 85 211 0.0 2.0 0.00 0.00 0.00 78 1010.7
20260902004526 85 183 0.0 0.0 0.00 0.00 0.00 78 1010.7
20260902004021 86 184 0.0 0.0 0.00 0.00 0.00 77 1010.7
20260902003514 86 204 0.0 0.0 0.00 0.00 0.00 77 1010.7
20260902003226 86 202 0.0 0.0 0.00 0.00 0.00 77 1010.7
20260902002501 87 171 0.0 1.0 0.00 0.00 0.00 76 1010.8
20260902001956 87 205 1.0 5.0 0.00 0.00 0.00 76 1010.8
20260902001450 87 176 1.0 5.0 0.00 0.00 0.00 75 1010.8
20260902000943 88 213 1.0 3.0 0.00 0.03 0.00 74 1010.8
20260902000655 88 213 1.0 3.0 0.00 0.04 0.00 74 1010.8
20260901235931 89 240 0.0 3.0 0.00 0.04 0.00 74 1010.8
20260901235426 89 213 0.0 3.0 0.00 0.04 0.00 74 1010.8
20260901234919 89 234 1.0 4.0 0.00 0.04 0.00 73 1010.8
20260901234904 90 221 1.0 4.0 0.00 0.04 0.00 72 1010.9
20260901233903 90 224 0.0 3.0 0.00 0.04 0.00 71 1010.9
20260901233400 91 198 1.0 3.0 0.00 0.04 0.00 70 1010.9
20260901232855 91 205 2.0 3.0 0.00 0.04 0.00 70 1010.9
20260901232349 91 209 1.0 5.0 0.00 0.04 0.00 69 1010.9
20260901231844 91 196 0.0 5.0 0.00 0.04 0.00 70 1010.9
20260901231334 91 221 1.0 5.0 0.00 0.04 0.00 70 1010.9
20260901230830 91 224 2.0 6.0 0.00 0.04 0.00 69 1010.9
20260901230327 92 244 2.0 6.0 0.00 0.04 0.00 69 1010.9
20260901225826 92 221 2.0 5.0 0.00 0.04 0.00 69 1010.8
20260901225327 92 200 3.0 6.0 0.00 0.04 0.00 68 1010.8
20260901224827 92 234 3.0 8.0 0.00 0.04 0.00 68 1010.8